Weather History for Kaneohe MCBH, HI

Change the Weather History Date:

Saturday, June 8, 2013

  Actual Average Record
Temperature  
Mean Temperature 79 °F -  
Max Temperature 84 °F 78 °F 84 °F (2013)
Min Temperature 74 °F 71 °F 72 °F (1998)
Cooling Degree Days 14    
Growing Degree Days 29 (Base 50)    
Moisture  
Dew Point 67 °F    
Average Humidity 65    
Maximum Humidity 76    
Minimum Humidity 56    
Precipitation  
Precipitation 0.00 in - - ()
Sea Level Pressure  
Sea Level Pressure 30.04 in    
Wind  
Wind Speed 11 mph (ENE)    
Max Wind Speed 15 mph    
Max Gust Speed 24 mph    
Visibility 9 miles    
Events      
Averages and records for this station are not official NWS values.
T = Trace of Precipitation, MM = Missing Value Source: NWS Daily Summary

Daily Weather History Graph

Daily Weather History Graph

Search for Another Location

Airport:

Trip Planner

Search our weather history database for the weather conditions in past years. The results will help you decide how hot, cold, wet, or windy it might be!

Date:

Astronomy

Jun. 08, 2013 Rise Set
Actual Time 5:48 AM HST 7:12 PM HST
Civil Twilight 5:23 AM HST 7:37 PM HST
Nautical Twilight 4:53 AM HST 8:06 PM HST
Astronomical Twilight 4:23 AM HST 8:37 PM HST
Moon 5:58 AM HST (6/8) 7:30 PM HST (6/8)
Length of Visible Light 14h 14m
Length of Day
13h 24m
New Moon, 0% of the Moon is Illuminated
Jun 8
New Moon
Jun 16
First Quarter
Jun 23
Full
Jun 29
Last Quarter
Jul 7
New

Hourly Weather History & Observations

Time (HST) Temp. Heat Index Dew Point Humidity Pressure Visibility Wind Dir Wind Speed Gust Speed Precip Events Conditions
12:57 AM 75.9 °F - 66.9 °F 74% 30.04 in 10.0 mi East 12.7 mph 21.9 mph N/A   Overcast
1:57 AM 75.6 °F - 64.9 °F 69% 30.02 in 10.0 mi East 12.7 mph 17.3 mph N/A   Scattered Clouds
2:57 AM 74.8 °F - 66.9 °F 76% 30.01 in 10.0 mi East 12.7 mph 23.0 mph N/A   Mostly Cloudy
3:16 AM 75.2 °F - 64.4 °F 69% 30.02 in 6.2 mi ENE 12.7 mph 24.2 mph N/A   Mostly Cloudy
3:24 AM 75.2 °F - 64.4 °F 69% 30.01 in 6.2 mi ENE 12.7 mph 19.6 mph N/A   Overcast
3:57 AM 75.9 °F - 64.9 °F 69% 30.00 in 10.0 mi East 12.7 mph 19.6 mph N/A   Overcast
4:57 AM 75.9 °F - 64.0 °F 67% 30.00 in 10.0 mi East 10.4 mph 20.7 mph N/A   Mostly Cloudy
5:57 AM 75.9 °F - 64.9 °F 69% 30.01 in 10.0 mi East 10.4 mph 20.7 mph N/A   Mostly Cloudy
6:57 AM 77.2 °F - 66.0 °F 68% 30.04 in 10.0 mi ENE 11.5 mph 18.4 mph N/A   Overcast
7:57 AM 78.4 °F - 64.9 °F 63% 30.04 in 10.0 mi ENE 9.2 mph 16.1 mph N/A   Mostly Cloudy
8:04 AM 78.8 °F - 66.2 °F 65% 30.05 in 6.2 mi ENE 9.2 mph 18.4 mph N/A   Mostly Cloudy
8:22 AM 78.8 °F - 66.2 °F 65% 30.05 in 6.2 mi East 12.7 mph 21.9 mph N/A   Scattered Clouds
8:57 AM 80.6 °F 82.7 °F 66.0 °F 61% 30.04 in 10.0 mi East 10.4 mph 20.7 mph N/A   Scattered Clouds
9:22 AM 80.6 °F 82.7 °F 66.2 °F 61% 30.06 in 6.2 mi ENE 12.7 mph 21.9 mph N/A   Mostly Cloudy
9:47 AM 80.6 °F 82.7 °F 66.2 °F 61% 30.06 in 6.2 mi ENE 15.0 mph 21.9 mph N/A   Scattered Clouds
9:57 AM 80.6 °F 82.9 °F 66.9 °F 63% 30.04 in 10.0 mi ENE 10.4 mph 21.9 mph N/A   Scattered Clouds
10:28 AM 80.6 °F 82.7 °F 66.2 °F 61% 30.07 in 6.2 mi ENE 10.4 mph 18.4 mph N/A   Mostly Cloudy
10:57 AM 82.4 °F 84.4 °F 66.0 °F 57% 30.06 in 10.0 mi ENE 11.5 mph 17.3 mph N/A   Mostly Cloudy
11:31 AM 82.4 °F 84.6 °F 66.2 °F 58% 30.06 in 6.2 mi ENE 9.2 mph 18.4 mph N/A   Scattered Clouds
11:57 AM 82.4 °F 84.4 °F 66.0 °F 57% 30.04 in 10.0 mi ENE 13.8 mph 20.7 mph N/A   Scattered Clouds
12:57 PM 82.4 °F 84.8 °F 66.9 °F 59% 30.03 in 10.0 mi ENE 10.4 mph 18.4 mph N/A   Scattered Clouds
1:57 PM 84.2 °F 86.8 °F 66.9 °F 56% 30.02 in 10.0 mi ENE 10.4 mph 16.1 mph N/A   Scattered Clouds
2:57 PM 84.2 °F 86.8 °F 66.9 °F 56% 30.01 in 10.0 mi ENE 10.4 mph 17.3 mph N/A   Partly Cloudy
3:57 PM 84.2 °F 86.8 °F 66.9 °F 56% 30.00 in 10.0 mi ENE 11.5 mph 17.3 mph N/A   Partly Cloudy
4:57 PM 84.2 °F 86.8 °F 66.9 °F 56% 30.00 in 10.0 mi East 9.2 mph - N/A   Mostly Cloudy
5:18 PM 84.2 °F 87.3 °F 68.0 °F 58% 30.02 in 6.2 mi ENE 9.2 mph - N/A   Scattered Clouds
5:57 PM 84.2 °F 87.3 °F 68.0 °F 58% 30.02 in 10.0 mi East 8.1 mph 16.1 mph N/A   Scattered Clouds
6:52 PM 78.8 °F - 68.0 °F 69% 30.04 in 6.2 mi East 9.2 mph - N/A   Mostly Cloudy
6:57 PM 78.8 °F - 68.0 °F 69% 30.03 in 10.0 mi ENE 8.1 mph - N/A   Scattered Clouds
7:06 PM - - - N/A% 30.04 in 6.2 mi East 9.2 mph - N/A   Mostly Cloudy
7:16 PM 80.6 °F 83.2 °F 68.0 °F 65% 30.04 in 6.2 mi East 9.2 mph 17.3 mph N/A   Scattered Clouds
7:57 PM 80.6 °F 83.2 °F 68.0 °F 65% 30.05 in 10.0 mi ENE 9.2 mph 16.1 mph N/A   Mostly Cloudy
8:57 PM 78.8 °F - 68.0 °F 69% 30.06 in 10.0 mi ENE 10.4 mph 17.3 mph N/A   Scattered Clouds
9:57 PM 77.0 °F - 68.0 °F 74% 30.07 in 10.0 mi ENE 9.2 mph - N/A   Scattered Clouds
10:28 PM 77.0 °F - 68.0 °F 74% 30.09 in 6.2 mi ENE 9.2 mph 16.1 mph N/A   Mostly Cloudy
10:38 PM 77.0 °F - 68.0 °F 74% 30.09 in 6.2 mi East 10.4 mph 17.3 mph N/A   Scattered Clouds
10:57 PM 77.0 °F - 68.0 °F 74% 30.08 in 10.0 mi East 10.4 mph - N/A   Scattered Clouds
11:57 PM 77.0 °F - 66.9 °F 71% 30.07 in 10.0 mi ENE 6.9 mph 17.3 mph N/A   Partly Cloudy